Location: S�deilles
(46.7500°N, 6.9329°E)
Time: 16:38:20
(UTC+00:00)

Cosmos 1727 Rocket - Pass Details

Date: 08 March 2021
Orbit: 962 x 996 km, 82.9° (Epoch: 20 April)

Event Time Altitude Azimuth Distance (km) Brightness Sun altitude
Rises 19:08:21 0° 351° (N) 3,661 7.3 -17.9°
Reaches altitude 10° 19:10:52 10° 352° (N) 2,712 6.6 -18.3°
Maximum altitude 19:17:06 88° 83° (E) 975 3.9 -19.3°
Drops below altitude 10° 19:23:19 10° 173° (S) 2,711 6.1 -20.3°
Sets 19:25:49 0° 173° (S) 3,659 6.8 -20.8°
